12:43
Airports
History
Links
Donate
Help keep this website running!
PayPal
Bitcoin
This page is community maintained. The information is intended for PC simulator navigation or reference.
Always use approved charts for navigation.
LGKR
IOANNIS KAPODISTRIAS INTL
IOANNIS KAPODISTRIAS INTL (LGKR)
Kerkira, Ionian Islands, Greece (49100)
(C)
Lat/Lng:39° 36' 6.4" N / 19° 54' 42.87" E
39.601779 / 19.911909
Elevation:6'ft / 2mMSL
ID / ICAO:LGKR
Runways:1
Longest:17-35
Asphalt 2,382m / 7,814ft
Controlled:Yes
METAR12:20 GMT 2018-01-20
Altimeter: 29.88
Visibility: 6.2 statute miles
Wind: 5 knots (from 200°)
Temp: 15°c / 59°f
Humidity: 77.0%

METAR: LGKR 201220Z 20005KT 9999 SCT015 SCT030 15/11 Q1012 NOSIG

(Powered by phpweather)
Airport Radio Frequencies
ATIS: 126.35
Tower: 120.85, 122.1
Approach: 118.07, 122.1, 122.35
Nearby VORs <50NM
Nearby NDBs
Runway 17 / 35
Dimensions:2381.8 x 45.1m 7814' x 148'ft
Surface:Asphalt
Edge Lights:Medium intensity
Runway 17 [A]Runway 35 [B]
Heading:168°TH 348°TH
Lat:
Lng:
39° 36' 44.22"N
19° 54' 33.16"E
39° 35' 28.59"N
19° 54' 52.58"E
ALS:SALS
TDZ:Yes, lighted
User Notes and Comments
39° 36' 6.4" N / 19° 54' 42.87" E
Distance To
Airport ID:
Nearby Airports
4 GJIROKASTER 35.9 NM
LA10 NNE 20°
(C) IOANNINA 48.9 NM
LGIO E 82°
(C) AKTIO 65.3 NM
LGPZ ( WX ) SE 135°
(C) KUCOVA 80.8 NM
LAKV N 359°
4 KORCE NORTHWEST 84.4 NM
LAKO NNE 31°
(C) ARISTOTELIS 93.0 NM
LGKA NE 51°
(C) Lecce Lepore 100.3 NM
LINL WNW 301°
VFR Chart
Flight Planning at SkyVector.com